SIA203 WSSS-YBCS

Flight info

Callsign SIA203
Flight time N/A
Altitude 39000
Route DODSO T21 OBDOS M774 KIKEM A464 IKUMA J61 DN/N0480F410 J61 PUNIT
Aircraft A359/H-SDE1E2E3GHIJ1J2J3J5M1P2RWXYZ/LB1D1

Departure

Time N/A
Airport Singapore Changi Airport (WSSS)

Arrival

Time 2026-04-27 08:46
Airport Cairns International Airport (YBCS)
Time Latitude Longitude Altitude Speed Heading
2026-04-27 06:03 -9.31309 124.93046 38859 ft 485 kts 117°
2026-04-27 06:03 -9.32304 124.95124 38860 ft 485 kts 117°
2026-04-27 06:04 -9.35245 125.01265 38867 ft 485 kts 117°
2026-04-27 06:04 -9.38188 125.07412 38864 ft 485 kts 117°
2026-04-27 06:05 -9.41102 125.13506 38858 ft 485 kts 117°
2026-04-27 06:05 -9.44043 125.19657 38861 ft 485 kts 117°
2026-04-27 06:06 -9.46982 125.25805 38866 ft 484 kts 117°
2026-04-27 06:06 -9.49914 125.31943 38859 ft 484 kts 116°
2026-04-27 06:07 -9.52846 125.38086 38856 ft 484 kts 116°
2026-04-27 06:07 -9.55781 125.44237 38848 ft 484 kts 116°
2026-04-27 06:08 -9.58699 125.50357 38856 ft 481 kts 117°
2026-04-27 06:08 -9.61603 125.56450 38852 ft 480 kts 117°
2026-04-27 06:09 -9.64506 125.62545 38851 ft 480 kts 117°
2026-04-27 06:09 -9.67411 125.68647 38850 ft 481 kts 117°
2026-04-27 06:10 -9.70313 125.74744 38852 ft 481 kts 117°
2026-04-27 06:10 -9.73220 125.80857 38849 ft 482 kts 117°
2026-04-27 06:11 -9.76136 125.86992 38850 ft 483 kts 117°
2026-04-27 06:11 -9.79050 125.93127 38852 ft 483 kts 117°
2026-04-27 06:12 -9.81965 125.99265 38851 ft 483 kts 116°
2026-04-27 06:12 -9.84853 126.05353 38850 ft 481 kts 116°
2026-04-27 06:13 -9.87753 126.11468 38851 ft 481 kts 116°
2026-04-27 06:13 -9.90799 126.17516 38855 ft 481 kts 120°
2026-04-27 06:14 -9.94094 126.23422 38854 ft 480 kts 121°
2026-04-27 06:14 -9.97383 126.29319 38851 ft 481 kts 120°
2026-04-27 06:15 -10.00633 126.35248 38850 ft 482 kts 120°
2026-04-27 06:15 -10.03869 126.41206 38843 ft 481 kts 120°
2026-04-27 06:16 -10.07104 126.47173 38858 ft 485 kts 120°
2026-04-27 06:16 -10.10368 126.53191 38860 ft 488 kts 120°
2026-04-27 06:17 -10.13633 126.59213 38854 ft 487 kts 120°
2026-04-27 06:17 -10.16897 126.65235 38847 ft 486 kts 120°
2026-04-27 06:18 -10.20135 126.71212 38852 ft 487 kts 120°
2026-04-27 06:18 -10.23394 126.77231 38851 ft 487 kts 120°
2026-04-27 06:19 -10.26658 126.83264 38850 ft 487 kts 120°
2026-04-27 06:19 -10.29925 126.89305 38846 ft 489 kts 120°
2026-04-27 06:20 -10.33205 126.95371 38850 ft 491 kts 120°
2026-04-27 06:20 -10.36488 127.01449 38850 ft 491 kts 120°
2026-04-27 06:21 -10.39775 127.07538 38850 ft 492 kts 120°
2026-04-27 06:21 -10.43064 127.13634 38860 ft 492 kts 120°
2026-04-27 06:22 -10.46351 127.19730 38847 ft 492 kts 120°
2026-04-27 06:22 -10.49633 127.25835 38856 ft 492 kts 120°
2026-04-27 06:23 -10.52916 127.31944 38854 ft 493 kts 120°
2026-04-27 06:23 -10.56204 127.38062 38851 ft 494 kts 120°
2026-04-27 06:24 -10.59476 127.44154 38865 ft 494 kts 120°
2026-04-27 06:24 -10.62769 127.50288 38849 ft 494 kts 120°
2026-04-27 06:25 -10.66060 127.56425 38848 ft 494 kts 120°
2026-04-27 06:25 -10.69351 127.62561 38859 ft 495 kts 120°
2026-04-27 06:26 -10.72640 127.68699 38858 ft 494 kts 120°
2026-04-27 06:26 -10.75926 127.74837 38858 ft 495 kts 120°
2026-04-27 06:27 -10.79225 127.80998 38853 ft 497 kts 120°
2026-04-27 06:27 -10.82531 127.87178 38871 ft 497 kts 120°
2026-04-27 06:28 -10.85832 127.93353 38853 ft 497 kts 120°
2026-04-27 06:28 -10.89131 127.99530 38856 ft 497 kts 120°
2026-04-27 06:29 -10.92415 128.05679 38855 ft 498 kts 120°
2026-04-27 06:29 -10.95717 128.11867 38859 ft 498 kts 120°
2026-04-27 06:30 -10.99020 128.18055 38857 ft 498 kts 122°
2026-04-27 06:30 -11.02401 128.24225 38860 ft 500 kts 122°
2026-04-27 06:31 -11.05773 128.30415 38859 ft 500 kts 121°
2026-04-27 06:31 -11.09101 128.36620 38860 ft 500 kts 121°
2026-04-27 06:32 -11.12414 128.42841 38860 ft 500 kts 122°
2026-04-27 06:32 -11.15723 128.49066 38860 ft 500 kts 121°
2026-04-27 06:33 -11.19026 128.55288 38858 ft 499 kts 121°
2026-04-27 06:33 -11.22330 128.61508 38859 ft 500 kts 121°
2026-04-27 06:34 -11.25649 128.67759 38857 ft 501 kts 121°
2026-04-27 06:34 -11.28939 128.73962 38860 ft 501 kts 121°
2026-04-27 06:35 -11.32240 128.80215 38860 ft 501 kts 120°
2026-04-27 06:35 -11.35522 128.86483 38861 ft 502 kts 120°
2026-04-27 06:36 -11.38816 128.92745 38860 ft 501 kts 120°
2026-04-27 06:36 -11.42117 128.98994 38860 ft 501 kts 121°
2026-04-27 06:37 -11.45419 129.05239 38860 ft 501 kts 120°
2026-04-27 06:37 -11.48725 129.11493 38860 ft 501 kts 120°
2026-04-27 06:38 -11.52024 129.17741 38859 ft 500 kts 120°
2026-04-27 06:38 -11.55299 129.23949 38859 ft 500 kts 120°
2026-04-27 06:39 -11.58595 129.30200 38859 ft 500 kts 120°
2026-04-27 06:39 -11.61887 129.36450 38861 ft 500 kts 120°
2026-04-27 06:40 -11.65175 129.42695 38854 ft 500 kts 121°
2026-04-27 06:40 -11.68474 129.48963 38857 ft 502 kts 121°
2026-04-27 06:41 -11.71774 129.55237 38857 ft 501 kts 120°
2026-04-27 06:41 -11.75070 129.61509 38856 ft 501 kts 120°
2026-04-27 06:42 -11.78366 129.67786 38855 ft 501 kts 120°
2026-04-27 06:42 -11.81658 129.74056 38860 ft 501 kts 120°
2026-04-27 06:43 -11.84947 129.80326 38859 ft 501 kts 120°
2026-04-27 06:43 -11.88236 129.86604 38857 ft 502 kts 120°
2026-04-27 06:44 -11.91503 129.92842 38860 ft 502 kts 120°
2026-04-27 06:44 -11.94790 129.99123 38858 ft 501 kts 121°
2026-04-27 06:45 -11.98077 130.05408 38855 ft 502 kts 121°
2026-04-27 06:45 -12.01366 130.11699 38859 ft 502 kts 121°
2026-04-27 06:46 -12.04650 130.17986 38859 ft 501 kts 120°
2026-04-27 06:46 -12.07933 130.24274 38860 ft 501 kts 120°
2026-04-27 06:47 -12.11207 130.30551 38858 ft 500 kts 120°
2026-04-27 06:47 -12.14474 130.36819 38859 ft 500 kts 120°
2026-04-27 06:48 -12.17738 130.43083 38856 ft 500 kts 120°
2026-04-27 06:48 -12.21003 130.49354 38856 ft 500 kts 120°
2026-04-27 06:49 -12.24246 130.55587 38856 ft 500 kts 120°
2026-04-27 06:49 -12.27513 130.61872 38856 ft 500 kts 120°
2026-04-27 06:50 -12.30775 130.68150 38856 ft 500 kts 120°
2026-04-27 06:50 -12.34034 130.74428 38856 ft 500 kts 120°
2026-04-27 06:51 -12.37290 130.80705 38856 ft 500 kts 120°
2026-04-27 06:51 -12.40543 130.86980 38857 ft 500 kts 120°
2026-04-27 06:52 -12.43356 130.93506 39004 ft 503 kts 112°
2026-04-27 06:52 -12.44539 130.96872 39180 ft 502 kts 111°
2026-04-27 06:52 -12.45684 131.00248 39348 ft 502 kts 111°
2026-04-27 06:53 -12.46806 131.03621 39523 ft 501 kts 111°
2026-04-27 06:53 -12.47924 131.07002 39679 ft 501 kts 111°
2026-04-27 06:53 -12.50160 131.13758 39912 ft 502 kts 111°
2026-04-27 06:54 -12.51283 131.17140 40041 ft 501 kts 111°
2026-04-27 06:54 -12.52409 131.20514 40166 ft 501 kts 111°
2026-04-27 06:54 -12.53533 131.23887 40314 ft 501 kts 111°
2026-04-27 06:54 -12.54637 131.27204 40442 ft 500 kts 111°
2026-04-27 06:55 -12.55759 131.30579 40585 ft 500 kts 111°
2026-04-27 06:55 -12.56877 131.33942 40708 ft 499 kts 111°
2026-04-27 06:55 -12.57994 131.37303 40825 ft 499 kts 111°
2026-04-27 06:55 -12.59113 131.40671 40854 ft 500 kts 111°
2026-04-27 06:56 -12.61354 131.47416 40855 ft 501 kts 111°
2026-04-27 06:56 -12.63230 131.53069 40851 ft 500 kts 111°
2026-04-27 06:57 -12.65468 131.59819 40856 ft 501 kts 112°
2026-04-27 06:57 -12.67693 131.66536 40850 ft 502 kts 112°
2026-04-27 06:58 -12.71050 131.76693 40849 ft 502 kts 112°
2026-04-27 06:59 -12.73290 131.83467 40853 ft 502 kts 111°
2026-04-27 06:59 -12.75529 131.90242 40853 ft 502 kts 111°
2026-04-27 07:00 -12.77766 131.97019 40850 ft 502 kts 111°
2026-04-27 07:00 -12.80002 132.03804 40844 ft 502 kts 111°
2026-04-27 07:01 -12.82234 132.10584 40847 ft 502 kts 111°
2026-04-27 07:01 -12.84459 132.17360 40845 ft 503 kts 111°
2026-04-27 07:02 -12.86675 132.24156 40846 ft 503 kts 111°
2026-04-27 07:02 -12.88900 132.30952 40847 ft 503 kts 111°
2026-04-27 07:03 -12.91130 132.37746 40845 ft 503 kts 111°
2026-04-27 07:03 -12.93358 132.44541 40843 ft 503 kts 111°
2026-04-27 07:04 -12.95585 132.51344 40848 ft 503 kts 111°
2026-04-27 07:04 -12.97807 132.58140 40845 ft 503 kts 111°
2026-04-27 07:05 -13.00024 132.64956 40849 ft 503 kts 111°
2026-04-27 07:05 -13.02237 132.71753 40856 ft 502 kts 111°
2026-04-27 07:06 -13.04435 132.78499 40855 ft 502 kts 111°
2026-04-27 07:06 -13.06646 132.85288 40857 ft 502 kts 111°
2026-04-27 07:07 -13.08858 132.92083 40867 ft 502 kts 111°
2026-04-27 07:07 -13.11068 132.98883 40867 ft 502 kts 111°
2026-04-27 07:08 -13.13275 133.05675 40870 ft 502 kts 111°
2026-04-27 07:08 -13.15478 133.12466 40880 ft 502 kts 111°
2026-04-27 07:09 -13.17677 133.19251 40881 ft 501 kts 111°
2026-04-27 07:09 -13.19875 133.26037 40881 ft 501 kts 111°
2026-04-27 07:10 -13.22070 133.32822 40889 ft 501 kts 111°
2026-04-27 07:10 -13.24264 133.39614 40891 ft 501 kts 111°
2026-04-27 07:11 -13.26457 133.46407 40889 ft 501 kts 111°
2026-04-27 07:11 -13.28649 133.53201 40895 ft 502 kts 111°
2026-04-27 07:12 -13.30839 133.60000 40894 ft 502 kts 111°
2026-04-27 07:12 -13.33012 133.66752 40895 ft 502 kts 111°
2026-04-27 07:13 -13.35201 133.73559 40896 ft 502 kts 111°
2026-04-27 07:13 -13.37405 133.80419 40895 ft 502 kts 111°
2026-04-27 07:14 -13.39590 133.87230 40896 ft 502 kts 111°
2026-04-27 07:14 -13.41760 133.94000 40892 ft 503 kts 111°
2026-04-27 07:15 -13.43946 134.00825 40891 ft 503 kts 111°
2026-04-27 07:15 -13.46128 134.07646 40898 ft 503 kts 111°
2026-04-27 07:16 -13.48316 134.14493 40897 ft 505 kts 111°
2026-04-27 07:16 -13.50507 134.21355 40889 ft 506 kts 111°
2026-04-27 07:17 -13.52698 134.28226 40890 ft 507 kts 111°
2026-04-27 07:17 -13.54892 134.35114 40889 ft 507 kts 111°
2026-04-27 07:18 -13.57083 134.41998 40886 ft 507 kts 111°
2026-04-27 07:18 -13.59275 134.48893 40892 ft 508 kts 111°
2026-04-27 07:19 -13.61466 134.55792 40892 ft 508 kts 111°
2026-04-27 07:19 -13.63643 134.62654 40890 ft 509 kts 111°
2026-04-27 07:20 -13.65838 134.69579 40894 ft 510 kts 111°
2026-04-27 07:20 -13.68032 134.76512 40894 ft 510 kts 111°
2026-04-27 07:21 -13.70225 134.83446 40895 ft 510 kts 111°
2026-04-27 07:21 -13.72416 134.90383 40903 ft 510 kts 111°
2026-04-27 07:22 -13.74606 134.97323 40897 ft 510 kts 111°
2026-04-27 07:22 -13.76794 135.04264 40903 ft 511 kts 111°
2026-04-27 07:23 -13.78991 135.11223 40899 ft 512 kts 111°
2026-04-27 07:23 -13.81187 135.18192 40903 ft 512 kts 111°
2026-04-27 07:24 -13.83376 135.25160 40909 ft 512 kts 112°
2026-04-27 07:24 -13.85548 135.32084 40908 ft 512 kts 112°
2026-04-27 07:25 -13.87736 135.39064 40919 ft 512 kts 112°
2026-04-27 07:25 -13.89924 135.46051 40916 ft 513 kts 112°
2026-04-27 07:26 -13.92116 135.53035 40915 ft 513 kts 112°
2026-04-27 07:26 -13.94311 135.60028 40912 ft 513 kts 112°
2026-04-27 07:27 -13.96499 135.67025 40910 ft 514 kts 112°
2026-04-27 07:27 -13.98693 135.74031 40911 ft 514 kts 112°
2026-04-27 07:28 -14.00883 135.81037 40909 ft 514 kts 112°
2026-04-27 07:28 -14.03073 135.88057 40911 ft 515 kts 112°
2026-04-27 07:29 -14.05261 135.95081 40911 ft 515 kts 112°
2026-04-27 07:29 -14.07434 136.02063 40907 ft 516 kts 112°
2026-04-27 07:30 -14.09621 136.09098 40910 ft 516 kts 112°
2026-04-27 07:30 -14.11809 136.16146 40909 ft 516 kts 112°
2026-04-27 07:31 -14.13995 136.23193 40909 ft 517 kts 112°
2026-04-27 07:31 -14.16182 136.30251 40907 ft 517 kts 112°
2026-04-27 07:32 -14.18366 136.37311 40916 ft 517 kts 112°
2026-04-27 07:32 -14.20553 136.44385 40910 ft 519 kts 112°
2026-04-27 07:33 -14.22740 136.51467 40914 ft 519 kts 112°
2026-04-27 07:33 -14.24924 136.58551 40917 ft 519 kts 112°
2026-04-27 07:34 -14.27112 136.65652 40912 ft 520 kts 112°
2026-04-27 07:34 -14.29299 136.72762 40910 ft 520 kts 112°
2026-04-27 07:35 -14.31470 136.79825 40915 ft 520 kts 112°
2026-04-27 07:35 -14.33646 136.86948 40911 ft 522 kts 111°
2026-04-27 07:36 -14.35793 136.94101 40911 ft 522 kts 111°
2026-04-27 07:36 -14.37955 137.01242 40915 ft 522 kts 111°
2026-04-27 07:37 -14.40145 137.08414 40915 ft 523 kts 111°
2026-04-27 07:37 -14.42334 137.15575 40911 ft 524 kts 111°
2026-04-27 07:38 -14.44518 137.22727 40914 ft 523 kts 111°
2026-04-27 07:38 -14.46702 137.29892 40897 ft 523 kts 111°
2026-04-27 07:39 -14.48884 137.37057 40913 ft 524 kts 111°
2026-04-27 07:39 -14.51065 137.44229 40919 ft 524 kts 111°
2026-04-27 07:40 -14.53252 137.51429 40907 ft 525 kts 111°
2026-04-27 07:40 -14.55434 137.58624 40904 ft 525 kts 111°
2026-04-27 07:41 -14.57601 137.65775 40914 ft 526 kts 111°
2026-04-27 07:41 -14.59785 137.72992 40911 ft 527 kts 111°
2026-04-27 07:42 -14.61966 137.80208 40904 ft 527 kts 111°
2026-04-27 07:42 -14.64149 137.87439 40908 ft 528 kts 111°
2026-04-27 07:43 -14.66335 137.94688 40911 ft 529 kts 111°
2026-04-27 07:43 -14.68518 138.01935 40916 ft 529 kts 111°
2026-04-27 07:44 -14.70702 138.09197 40909 ft 530 kts 111°
2026-04-27 07:44 -14.72887 138.16471 40912 ft 530 kts 111°
2026-04-27 07:45 -14.75071 138.23751 40917 ft 530 kts 111°
2026-04-27 07:45 -14.77258 138.31049 40909 ft 531 kts 111°
2026-04-27 07:46 -14.79442 138.38344 40911 ft 532 kts 111°
2026-04-27 07:46 -14.81625 138.45650 40920 ft 532 kts 111°
2026-04-27 07:47 -14.83811 138.52969 40909 ft 534 kts 111°
2026-04-27 07:47 -14.85629 138.59065 40911 ft 534 kts 111°
2026-04-27 07:48 -14.87815 138.66404 40920 ft 534 kts 111°
2026-04-27 07:48 -14.90001 138.73753 40905 ft 535 kts 111°
2026-04-27 07:49 -14.92188 138.81117 40907 ft 536 kts 111°
2026-04-27 07:49 -14.94372 138.88476 40911 ft 536 kts 111°
2026-04-27 07:50 -14.96911 138.97049 40912 ft 537 kts 111°
2026-04-27 07:50 -14.98741 139.03235 40909 ft 537 kts 111°
2026-04-27 07:51 -15.00907 139.10565 40916 ft 537 kts 111°
2026-04-27 07:51 -15.03090 139.17962 40910 ft 538 kts 111°
2026-04-27 07:52 -15.05271 139.25363 40915 ft 538 kts 111°
2026-04-27 07:52 -15.07451 139.32769 40911 ft 538 kts 111°
2026-04-27 07:53 -15.09627 139.40173 40909 ft 538 kts 111°
2026-04-27 07:53 -15.11802 139.47581 40914 ft 538 kts 111°
2026-04-27 07:54 -15.13974 139.54991 40906 ft 538 kts 111°
2026-04-27 07:54 -15.16148 139.62413 40903 ft 539 kts 111°
2026-04-27 07:55 -15.18306 139.69794 40918 ft 539 kts 111°
2026-04-27 07:55 -15.20474 139.77220 40909 ft 539 kts 111°
2026-04-27 07:56 -15.22644 139.84661 40912 ft 540 kts 111°
2026-04-27 07:56 -15.24812 139.92107 40912 ft 540 kts 111°
2026-04-27 07:57 -15.26978 139.99554 40914 ft 540 kts 111°
2026-04-27 07:57 -15.29144 140.07009 40911 ft 541 kts 111°
2026-04-27 07:58 -15.31308 140.14469 40911 ft 541 kts 111°
2026-04-27 07:58 -15.33469 140.21931 40915 ft 541 kts 111°
2026-04-27 07:59 -15.35630 140.29399 40913 ft 541 kts 111°
2026-04-27 07:59 -15.38865 140.40601 40910 ft 541 kts 111°
2026-04-27 08:00 -15.41022 140.48079 40913 ft 542 kts 111°
2026-04-27 08:00 -15.43190 140.55579 40912 ft 542 kts 111°
2026-04-27 08:01 -15.45349 140.63069 40907 ft 542 kts 111°
2026-04-27 08:01 -15.47502 140.70564 40906 ft 543 kts 111°
2026-04-27 08:02 -15.49638 140.78016 40906 ft 543 kts 111°
2026-04-27 08:02 -15.51783 140.85511 40906 ft 543 kts 111°
2026-04-27 08:03 -15.53930 140.93021 40912 ft 543 kts 111°
2026-04-27 08:03 -15.56077 141.00539 40906 ft 544 kts 111°
2026-04-27 08:04 -15.58224 141.08068 40903 ft 544 kts 111°
2026-04-27 08:04 -15.60366 141.15593 40903 ft 544 kts 110°
2026-04-27 08:05 -15.62506 141.23118 40905 ft 545 kts 110°
2026-04-27 08:05 -15.64650 141.30670 40900 ft 545 kts 110°
2026-04-27 08:06 -15.66784 141.38197 40901 ft 545 kts 110°
2026-04-27 08:06 -15.68909 141.45700 40900 ft 546 kts 110°
2026-04-27 08:07 -15.71048 141.53267 40900 ft 546 kts 110°
2026-04-27 08:07 -15.73181 141.60825 40900 ft 546 kts 110°
2026-04-27 08:08 -15.75316 141.68396 40900 ft 546 kts 110°
2026-04-27 08:08 -15.77443 141.75953 40900 ft 546 kts 110°
2026-04-27 08:09 -15.79573 141.83529 40901 ft 546 kts 110°
2026-04-27 08:09 -15.81699 141.91102 40897 ft 547 kts 110°
2026-04-27 08:10 -15.83822 141.98684 40902 ft 546 kts 110°
2026-04-27 08:10 -15.85933 142.06243 40917 ft 546 kts 110°
2026-04-27 08:11 -15.88048 142.13828 40903 ft 547 kts 110°
2026-04-27 08:11 -15.90167 142.21434 40905 ft 547 kts 110°
2026-04-27 08:12 -15.92278 142.29026 40909 ft 547 kts 110°
2026-04-27 08:12 -15.94387 142.36619 40903 ft 548 kts 110°
2026-04-27 08:13 -15.96502 142.44246 40903 ft 548 kts 110°
2026-04-27 08:13 -15.98608 142.51853 40903 ft 548 kts 110°
2026-04-27 08:14 -16.00715 142.59473 40906 ft 549 kts 109°
2026-04-27 08:14 -16.02821 142.67101 40906 ft 549 kts 109°
2026-04-27 08:15 -16.04911 142.74683 40906 ft 549 kts 109°
2026-04-27 08:15 -16.07012 142.82314 40906 ft 550 kts 109°
2026-04-27 08:16 -16.09081 142.89841 40903 ft 551 kts 109°
2026-04-27 08:16 -16.11182 142.97499 40903 ft 551 kts 109°
2026-04-27 08:17 -16.13285 143.05172 40906 ft 551 kts 109°
2026-04-27 08:17 -16.15380 143.12832 40905 ft 552 kts 109°
2026-04-27 08:18 -16.17477 143.20508 40646 ft 549 kts 109°
2026-04-27 08:18 -16.18518 143.24325 40396 ft 548 kts 109°
2026-04-27 08:18 -16.19553 143.28131 40004 ft 547 kts 108°
2026-04-27 08:19 -16.20593 143.31953 39262 ft 549 kts 108°
2026-04-27 08:19 -16.21636 143.35787 38514 ft 552 kts 108°
2026-04-27 08:19 -16.22683 143.39636 37754 ft 553 kts 108°
2026-04-27 08:19 -16.23728 143.43482 37099 ft 552 kts 108°
2026-04-27 08:20 -16.24769 143.47319 36456 ft 551 kts 108°
2026-04-27 08:20 -16.25810 143.51155 35805 ft 550 kts 108°
2026-04-27 08:20 -16.26847 143.54980 35240 ft 548 kts 108°
2026-04-27 08:20 -16.27879 143.58789 34717 ft 545 kts 108°
2026-04-27 08:21 -16.28904 143.62577 34220 ft 543 kts 108°
2026-04-27 08:21 -16.29924 143.66345 33682 ft 541 kts 108°
2026-04-27 08:21 -16.30941 143.70110 33146 ft 537 kts 108°
2026-04-27 08:21 -16.31950 143.73845 32624 ft 534 kts 108°
2026-04-27 08:22 -16.32947 143.77539 32136 ft 530 kts 108°
2026-04-27 08:22 -16.33926 143.81169 31625 ft 526 kts 108°
2026-04-27 08:22 -16.34911 143.84822 31136 ft 522 kts 108°
2026-04-27 08:22 -16.35887 143.88446 30643 ft 518 kts 108°
2026-04-27 08:23 -16.36855 143.92043 30158 ft 514 kts 108°
2026-04-27 08:23 -16.37829 143.95666 29614 ft 509 kts 108°
2026-04-27 08:23 -16.38766 143.99152 29129 ft 504 kts 108°
2026-04-27 08:23 -16.39701 144.02633 28651 ft 498 kts 107°
2026-04-27 08:24 -16.40627 144.06085 28168 ft 492 kts 107°
2026-04-27 08:24 -16.41544 144.09504 27707 ft 486 kts 107°
2026-04-27 08:24 -16.42447 144.12876 27253 ft 481 kts 107°
2026-04-27 08:24 -16.43340 144.16207 26780 ft 475 kts 107°
2026-04-27 08:25 -16.44222 144.19504 26324 ft 470 kts 107°
2026-04-27 08:25 -16.45094 144.22764 25877 ft 465 kts 107°
2026-04-27 08:25 -16.45955 144.25984 25417 ft 460 kts 107°
2026-04-27 08:25 -16.46808 144.29176 24961 ft 455 kts 107°
2026-04-27 08:26 -16.47651 144.32334 24492 ft 450 kts 106°
2026-04-27 08:26 -16.48482 144.35451 24066 ft 445 kts 106°
2026-04-27 08:26 -16.49306 144.38542 23608 ft 441 kts 106°
2026-04-27 08:26 -16.50125 144.41615 23099 ft 436 kts 106°
2026-04-27 08:27 -16.50926 144.44624 22644 ft 430 kts 106°
2026-04-27 08:27 -16.51721 144.47612 22202 ft 424 kts 106°
2026-04-27 08:27 -16.52502 144.50549 21756 ft 418 kts 106°
2026-04-27 08:27 -16.53273 144.53449 21323 ft 413 kts 106°
2026-04-27 08:28 -16.54034 144.56314 20899 ft 408 kts 106°
2026-04-27 08:28 -16.54785 144.59144 20459 ft 403 kts 106°
2026-04-27 08:28 -16.55529 144.61949 20033 ft 399 kts 106°
2026-04-27 08:28 -16.56264 144.64721 19608 ft 395 kts 106°
2026-04-27 08:29 -16.56992 144.67469 19192 ft 392 kts 106°
2026-04-27 08:29 -16.57713 144.70190 18774 ft 388 kts 106°
2026-04-27 08:29 -16.58430 144.72900 18353 ft 385 kts 106°
2026-04-27 08:29 -16.59140 144.75584 17910 ft 382 kts 107°
2026-04-27 08:30 -16.59840 144.78234 17463 ft 378 kts 107°
2026-04-27 08:30 -16.60536 144.80868 17059 ft 374 kts 107°
2026-04-27 08:30 -16.61222 144.83467 16653 ft 370 kts 107°
2026-04-27 08:30 -16.61891 144.86001 16255 ft 366 kts 107°
2026-04-27 08:31 -16.62557 144.88539 15852 ft 362 kts 107°
2026-04-27 08:31 -16.62944 144.91115 15443 ft 359 kts 91°
2026-04-27 08:31 -16.62763 144.93698 15061 ft 356 kts 83°
2026-04-27 08:31 -16.62443 144.96248 14672 ft 353 kts 83°
2026-04-27 08:32 -16.62119 144.98777 14263 ft 351 kts 83°
2026-04-27 08:32 -16.61801 145.01291 13863 ft 348 kts 83°
2026-04-27 08:32 -16.61480 145.03861 13614 ft 372 kts 83°
2026-04-27 08:32 -16.61145 145.06567 13466 ft 374 kts 83°
2026-04-27 08:33 -16.60811 145.09254 12693 ft 376 kts 83°
2026-04-27 08:33 -16.60475 145.11967 12096 ft 380 kts 84°
2026-04-27 08:33 -16.60138 145.14689 11627 ft 377 kts 84°
2026-04-27 08:33 -16.59815 145.17377 11173 ft 371 kts 85°
2026-04-27 08:34 -16.59496 145.20026 10724 ft 364 kts 84°
2026-04-27 08:34 -16.59182 145.22604 10562 ft 356 kts 85°
2026-04-27 08:34 -16.58868 145.25169 10433 ft 356 kts 85°
2026-04-27 08:34 -16.58554 145.27721 10181 ft 355 kts 85°
2026-04-27 08:35 -16.58238 145.30262 9741 ft 349 kts 85°
2026-04-27 08:35 -16.57933 145.32710 9337 ft 343 kts 84°
2026-04-27 08:35 -16.57626 145.35174 8958 ft 342 kts 84°
2026-04-27 08:35 -16.57319 145.37628 8580 ft 340 kts 84°
2026-04-27 08:36 -16.57012 145.40066 8198 ft 338 kts 84°
2026-04-27 08:36 -16.56706 145.42490 7819 ft 336 kts 85°
2026-04-27 08:36 -16.56400 145.44902 7438 ft 334 kts 84°
2026-04-27 08:36 -16.56097 145.47286 7056 ft 332 kts 84°
2026-04-27 08:37 -16.55798 145.49655 6704 ft 322 kts 85°
2026-04-27 08:37 -16.55511 145.51911 6326 ft 298 kts 85°
2026-04-27 08:37 -16.55334 145.53300 6096 ft 285 kts 85°
2026-04-27 08:37 -16.55006 145.55877 5714 ft 258 kts 86°
2026-04-27 08:38 -16.54923 145.57669 5429 ft 240 kts 99°
2026-04-27 08:38 -16.55462 145.59261 5125 ft 231 kts 129°
2026-04-27 08:38 -16.56607 145.60368 5003 ft 222 kts 145°
2026-04-27 08:38 -16.57917 145.61225 4997 ft 223 kts 151°
2026-04-27 08:39 -16.59310 145.61947 5002 ft 224 kts 155°
2026-04-27 08:39 -16.60730 145.62599 4999 ft 222 kts 156°
2026-04-27 08:39 -16.62140 145.63232 4994 ft 217 kts 155°
2026-04-27 08:39 -16.63475 145.63833 4931 ft 203 kts 155°
2026-04-27 08:40 -16.64745 145.64420 4742 ft 197 kts 155°
2026-04-27 08:40 -16.65589 145.64808 4533 ft 196 kts 155°
2026-04-27 08:40 -16.66841 145.65374 4233 ft 196 kts 155°
2026-04-27 08:40 -16.68093 145.65944 3925 ft 196 kts 155°
2026-04-27 08:41 -16.69341 145.66512 3657 ft 194 kts 156°
2026-04-27 08:41 -16.70560 145.67067 3414 ft 189 kts 156°
2026-04-27 08:41 -16.71751 145.67607 3150 ft 185 kts 157°
2026-04-27 08:41 -16.72910 145.68131 2910 ft 179 kts 156°
2026-04-27 08:42 -16.74030 145.68642 2676 ft 170 kts 157°
2026-04-27 08:42 -16.75069 145.69114 2442 ft 156 kts 157°
2026-04-27 08:42 -16.76036 145.69554 2267 ft 149 kts 156°
2026-04-27 08:42 -16.76981 145.69985 2057 ft 148 kts 157°
2026-04-27 08:43 -16.77930 145.70417 1857 ft 149 kts 157°
2026-04-27 08:43 -16.78877 145.70848 1670 ft 148 kts 158°
2026-04-27 08:43 -16.79815 145.71274 1464 ft 146 kts 158°
2026-04-27 08:43 -16.80745 145.71689 1265 ft 144 kts 155°
2026-04-27 08:44 -16.81638 145.72070 1097 ft 132 kts 157°
2026-04-27 08:44 -16.82451 145.72437 902 ft 125 kts 154°
2026-04-27 08:44 -16.83216 145.72836 749 ft 123 kts 152°
2026-04-27 08:44 -16.84012 145.73186 647 ft 126 kts 158°
2026-04-27 08:45 -16.84819 145.73516 504 ft 124 kts 152°
2026-04-27 08:45 -16.85615 145.73912 280 ft 126 kts 158°
2026-04-27 08:45 -16.86418 145.74275 88 ft 126 kts 157°
2026-04-27 08:45 -16.87218 145.74645 5 ft 117 kts 156°
2026-04-27 08:46 -16.87831 145.74919 29 ft 75 kts 156°
2026-04-27 08:46 -16.88179 145.75078 28 ft 41 kts 156°
2026-04-27 08:46 -16.88338 145.75159 29 ft 16 kts 134°
2026-04-27 08:46 -16.88344 145.75250 25 ft 6 kts 68°
2026-04-27 08:47 -16.88327 145.75285 27 ft 5 kts 54°
2026-04-27 08:47 -16.88287 145.75305 26 ft 8 kts
2026-04-27 08:47 -16.88229 145.75289 27 ft 10 kts 340°
2026-04-27 08:47 -16.88155 145.75257 24 ft 13 kts 338°
2026-04-27 08:48 -16.88062 145.75216 24 ft 16 kts 338°
2026-04-27 08:48 -16.87952 145.75165 26 ft 19 kts 336°
2026-04-27 08:48 -16.87825 145.75107 24 ft 20 kts 336°
2026-04-27 08:48 -16.87766 145.75081 27 ft 9 kts 337°
2026-04-27 08:49 -16.87700 145.75052 25 ft 12 kts 337°
2026-04-27 08:49 -16.87615 145.75020 25 ft 15 kts 341°
2026-04-27 08:49 -16.87514 145.74974 24 ft 17 kts 335°
2026-04-27 08:49 -16.87400 145.74923 9 ft 18 kts 336°